Date String (YYYY-MM-DD hh:mm:ss) UTC,Instrument flags,Ambient pressure (hPa),Sample flow (lpm),Bypass flow (lpm),Sample temperature (°C),Ambient temperature (°C),ASC tube jacket temperature (°C),LED temperature (°C),Box temperature (°C),Sample RH (%),Span deviation,Mass concentration (μg/m³),Mass concentration (μg/m³),Mass concentration (μg/m³)
DateTimeUTC,F1_M11,P_M11,Q1_M11,Q2_M11,T1_M11,T2_M11,T3_M11,T4_M11,T5_M11,U1_M11,ZSPAN_M11,X2_M11,X0_M11,X1_M11
2022-01-26 17:00:00,,0824.3,5.00,0.00,22.6,22.0,00.0,31.4,24.4,08.0,0000.0,0004.38,0005.86,0004.26
2022-01-26 17:01:00,,0824.3,5.00,0.00,22.6,22.0,00.0,31.4,24.4,08.0,0000.0,0004.38,0005.84,0004.27
2022-01-26 17:02:00,,0824.3,5.00,0.00,22.6,22.0,00.0,31.5,24.4,08.0,0000.0,0004.39,0005.81,0004.30
2022-01-26 17:03:00,,0824.3,5.00,0.00,22.6,22.0,00.0,31.5,24.4,08.0,0000.0,0004.40,0005.82,0004.31
2022-01-26 17:04:00,,0824.3,4.99,0.00,22.6,22.0,00.0,31.5,24.4,08.1,0000.0,0004.38,0005.78,0004.30
2022-01-26 17:05:00,,0824.3,5.00,0.00,22.7,22.0,00.0,31.5,24.4,08.0,0000.0,0004.38,0005.75,0004.30
2022-01-26 17:06:00,,0824.3,5.01,0.00,22.7,22.0,00.0,31.5,24.4,08.0,0000.0,0004.37,0005.72,0004.29
2022-01-26 17:07:00,,0824.3,4.99,0.00,22.7,22.0,00.0,31.5,24.4,08.0,0000.0,0004.37,0005.71,0004.28
2022-01-26 17:08:00,,0824.3,5.00,0.00,22.6,21.9,00.0,31.5,24.4,08.0,0000.0,0004.38,0005.74,0004.30
2022-01-26 17:09:00,,0824.3,5.00,0.00,22.6,21.9,00.0,31.5,24.4,08.0,0000.0,0004.38,0005.74,0004.30
2022-01-26 17:10:00,,0824.3,5.00,0.00,22.6,21.9,00.0,31.5,24.4,08.1,0000.0,0004.38,0005.71,0004.31
2022-01-26 17:11:00,,0824.3,5.00,0.00,22.7,22.0,00.0,31.5,24.4,08.1,0000.0,0004.40,0005.74,0004.34
2022-01-26 17:12:00,,0824.3,5.00,0.00,22.7,22.0,00.0,31.5,24.4,07.9,0000.0,0004.41,0005.69,0004.35
2022-01-26 17:13:00,,0824.4,5.00,0.00,22.6,22.0,00.0,31.6,24.4,07.9,0000.0,0004.42,0005.75,0004.35
2022-01-26 17:14:00,,0824.5,5.01,0.00,22.6,22.0,00.0,31.6,24.4,08.0,0000.0,0004.44,0005.83,0004.36
2022-01-26 17:15:00,,0824.4,5.00,0.00,22.6,21.9,00.0,31.6,24.3,08.1,0000.0,0004.46,0005.88,0004.37
2022-01-26 17:16:00,,0824.4,5.00,0.00,22.6,21.9,00.0,31.6,24.3,08.0,0000.0,0004.48,0005.90,0004.39
2022-01-26 17:17:00,,0824.4,5.00,0.00,22.6,21.9,00.0,31.5,24.3,08.1,0000.0,0004.48,0005.86,0004.41
2022-01-26 17:18:00,,0824.4,4.99,0.00,22.6,21.9,00.0,31.5,24.3,08.2,0000.0,0004.52,0005.93,0004.44
2022-01-26 17:19:00,,0824.4,5.00,0.00,22.6,21.9,00.0,31.5,24.3,08.1,0000.0,0004.54,0005.99,0004.46
2022-01-26 17:20:00,,0824.4,5.00,0.00,22.6,21.9,00.0,31.5,24.3,08.1,0000.0,0004.55,0006.00,0004.46
2022-01-26 17:21:00,,0824.4,5.00,0.00,22.6,21.9,00.0,31.5,24.4,08.1,0000.0,0004.59,0006.14,0004.49
2022-01-26 17:22:00,,0824.5,4.99,0.00,22.6,21.9,00.0,31.5,24.4,08.1,0000.0,0004.61,0006.22,0004.50
2022-01-26 17:23:00,,0824.5,5.00,0.00,22.6,21.9,00.0,31.6,24.4,08.1,0000.0,0004.63,0006.27,0004.51
2022-01-26 17:24:00,,0824.5,5.00,0.00,22.7,22.0,00.0,31.6,24.4,08.1,0000.0,0004.64,0006.26,0004.53
2022-01-26 17:25:00,,0824.5,5.00,0.00,22.7,22.0,00.0,31.6,24.4,08.1,0000.0,0004.66,0006.27,0004.55
2022-01-26 17:26:00,,0824.5,5.00,0.00,22.7,22.0,00.0,31.6,24.5,08.1,0000.0,0004.66,0006.25,0004.56
2022-01-26 17:27:00,,0824.6,5.00,0.00,22.7,22.0,00.0,31.6,24.5,08.0,0000.0,0004.66,0006.28,0004.55
2022-01-26 17:28:00,,0824.6,5.01,0.00,22.7,22.0,00.0,31.6,24.5,08.0,0000.0,0004.66,0006.27,0004.54
2022-01-26 17:29:00,,0824.6,4.99,0.00,22.7,22.0,00.0,31.6,24.5,08.0,0000.0,0004.64,0006.23,0004.53
2022-01-26 17:30:00,,0824.5,5.00,0.00,22.7,22.0,00.0,31.6,24.5,08.0,0000.0,0004.64,0006.23,0004.53
2022-01-26 17:31:00,,0824.6,5.00,0.00,22.7,22.0,00.0,31.6,24.5,08.1,0000.0,0004.65,0006.33,0004.52
2022-01-26 17:32:00,,0824.5,4.99,0.00,22.7,22.0,00.0,31.6,24.5,08.0,0000.0,0004.65,0006.31,0004.51
2022-01-26 17:33:00,,0824.5,5.00,0.00,22.7,22.0,00.0,31.6,24.5,08.2,0000.0,0004.63,0006.25,0004.50
2022-01-26 17:34:00,,0824.5,5.02,0.00,22.8,22.1,00.0,31.6,24.5,08.2,0000.0,0004.62,0006.24,0004.49
2022-01-26 17:35:00,,0824.5,4.98,0.00,22.8,22.1,00.0,31.6,24.6,08.1,0000.0,0004.61,0006.22,0004.48
2022-01-26 17:36:00,,0824.5,5.00,0.00,22.8,22.1,00.0,31.6,24.6,08.0,0000.0,0004.61,0006.21,0004.47
2022-01-26 17:37:00,,0824.5,5.00,0.00,22.8,22.1,00.0,31.7,24.6,08.1,0000.0,0004.61,0006.26,0004.46
2022-01-26 17:38:00,,0824.5,5.01,0.00,22.8,22.1,00.0,31.7,24.6,08.1,0000.0,0004.61,0006.28,0004.46
2022-01-26 17:39:00,,0824.5,5.00,0.00,22.8,22.1,00.0,31.7,24.6,08.1,0000.0,0004.62,0006.29,0004.47
2022-01-26 17:40:00,,0824.5,5.00,0.00,22.8,22.1,00.0,31.7,24.6,08.2,0000.0,0004.63,0006.32,0004.48
2022-01-26 17:41:00,,0824.4,5.00,0.00,22.8,22.1,00.0,31.7,24.6,08.2,0000.0,0004.63,0006.29,0004.49
2022-01-26 17:42:00,,0824.4,5.00,0.00,22.8,22.1,00.0,31.7,24.6,08.2,0000.0,0004.63,0006.24,0004.50
2022-01-26 17:43:00,,0824.5,5.02,0.00,22.8,22.1,00.0,31.7,24.6,08.3,0000.0,0004.66,0006.58,0004.53
2022-01-26 17:44:00,,0824.4,4.99,0.00,22.8,22.1,00.0,31.7,24.5,08.1,0000.0,0004.71,0006.96,0004.57
2022-01-26 17:45:00,,0824.4,4.99,0.00,22.8,22.1,00.0,31.7,24.6,08.2,0000.0,0004.77,0007.09,0004.61
2022-01-26 17:46:00,,0824.4,5.00,0.00,22.8,22.1,00.0,31.7,24.6,08.2,0000.0,0004.81,0007.19,0004.64
2022-01-26 17:47:00,,0824.4,5.00,0.00,22.8,22.1,00.0,31.7,24.6,08.3,0000.0,0004.84,0007.25,0004.67
2022-01-26 17:48:00,,0824.4,5.00,0.00,22.8,22.1,00.0,31.7,24.6,08.4,0000.0,0004.89,0007.37,0004.72
2022-01-26 17:49:00,,0824.4,4.99,0.00,22.8,22.1,00.0,31.7,24.6,08.3,0000.0,0004.92,0007.38,0004.75
2022-01-26 17:50:00,,0824.4,5.01,0.00,22.8,22.1,00.0,31.7,24.5,08.3,0000.0,0004.98,0007.45,0004.79
2022-01-26 17:51:00,,0824.4,5.00,0.00,22.8,22.1,00.0,31.7,24.6,08.3,0000.0,0005.02,0007.51,0004.83
2022-01-26 17:52:00,,0824.4,5.00,0.00,22.8,22.1,00.0,31.7,24.6,08.4,0000.0,0005.07,0007.63,0004.86
2022-01-26 17:53:00,,0824.4,5.00,0.00,22.8,22.1,00.0,31.7,24.6,08.3,0000.0,0005.09,0008.17,0004.89
2022-01-26 17:54:00,,0824.4,5.00,0.00,22.9,22.2,00.0,31.8,24.7,08.3,0000.0,0005.13,0008.16,0004.92
2022-01-26 17:55:00,,0824.4,5.00,0.00,22.9,22.2,00.0,31.8,24.7,08.2,0000.0,0005.13,0007.92,0004.93
2022-01-26 17:56:00,,0824.3,5.00,0.00,22.9,22.2,00.0,31.8,24.7,08.3,0000.0,0005.15,0007.96,0004.95
2022-01-26 17:57:00,,0824.3,4.99,0.00,22.9,22.2,00.0,31.8,24.7,08.2,0000.0,0005.16,0007.97,0004.96
2022-01-26 17:58:00,,0824.3,4.99,0.00,22.9,22.2,00.0,31.8,24.8,08.2,0000.0,0005.16,0007.95,0004.98
2022-01-26 17:59:00,,0824.3,5.00,0.00,22.9,22.3,00.0,31.8,24.8,08.3,0000.0,0005.16,0007.92,0004.99
